TimeCST,TemperatureF,Dew PointF,Humidity,Sea Level PressureIn,VisibilityMPH,Wind Direction,Wind SpeedMPH,Gust SpeedMPH,PrecipitationIn,Events,Conditions,WindDirDegrees,DateUTC
12:53 AM,8.1,-0.9,67,30.32,10.0,West,5.8,-,N/A,,Clear,270,2012-12-10 06:53:00
1:53 AM,8.1,-0.9,67,30.29,10.0,WNW,8.1,-,N/A,,Clear,300,2012-12-10 07:53:00
2:53 AM,7.0,-0.9,70,30.27,10.0,NW,5.8,-,N/A,,Clear,320,2012-12-10 08:53:00
3:53 AM,3.9,-2.9,73,30.27,10.0,West,5.8,-,N/A,,Clear,260,2012-12-10 09:53:00
4:53 AM,3.9,-2.9,73,30.25,10.0,WNW,10.4,-,N/A,,Clear,290,2012-12-10 10:53:00
5:53 AM,1.0,-5.1,75,30.23,10.0,Calm,Calm,-,N/A,,Clear,0,2012-12-10 11:53:00
6:53 AM,1.0,-5.1,75,30.22,10.0,WSW,3.5,-,N/A,,Clear,240,2012-12-10 12:53:00
7:53 AM,1.0,-5.1,75,30.21,10.0,WSW,4.6,-,N/A,,Clear,250,2012-12-10 13:53:00
8:53 AM,6.1,-2.9,67,30.18,10.0,West,4.6,-,N/A,,Clear,260,2012-12-10 14:53:00
9:53 AM,17.1,3.0,54,30.15,10.0,WSW,5.8,-,N/A,,Clear,250,2012-12-10 15:53:00
11:53 AM,37.0,3.9,25,30.06,10.0,SW,15.0,21.9,N/A,,Mostly Cloudy,230,2012-12-10 17:53:00
12:53 PM,39.9,1.9,20,30.01,10.0,WSW,19.6,27.6,N/A,,Clear,240,2012-12-10 18:53:00
1:53 PM,42.1,1.9,19,29.97,10.0,SW,16.1,25.3,N/A,,Clear,230,2012-12-10 19:53:00
2:53 PM,44.1,-0.9,15,29.93,10.0,WSW,15.0,24.2,N/A,,Clear,250,2012-12-10 20:53:00
3:53 PM,44.1,-2.9,14,29.93,10.0,West,11.5,-,N/A,,Clear,260,2012-12-10 21:53:00
4:53 PM,42.1,1.9,19,29.94,10.0,WNW,10.4,-,N/A,,Clear,300,2012-12-10 22:53:00
5:53 PM,28.0,1.0,31,29.98,10.0,NW,4.6,-,N/A,,Clear,320,2012-12-10 23:53:00
6:53 PM,24.1,-0.0,35,30.00,10.0,Calm,Calm,-,N/A,,Clear,0,2012-12-11 00:53:00
7:53 PM,19.0,-0.9,42,30.03,10.0,WNW,4.6,-,N/A,,Clear,300,2012-12-11 01:53:00
8:53 PM,21.9,1.9,42,30.03,10.0,West,4.6,-,N/A,,Clear,270,2012-12-11 02:53:00
9:53 PM,21.9,3.9,46,30.02,10.0,WNW,5.8,-,N/A,,Clear,290,2012-12-11 03:53:00
10:53 PM,19.9,5.0,52,30.03,10.0,West,5.8,-,N/A,,Clear,270,2012-12-11 04:53:00
11:53 PM,21.0,7.0,55,30.02,10.0,NNW,10.4,-,N/A,,Clear,330,2012-12-11 05:53:00